Regional Weather Roundup
Issued by NWS Kansas City/Pleasant Hill, MO

Home | Current Version | Previous Version | Graphics & Text | Print | Product List | Glossary Off
Versions: 1 2 3 4 5 6 7 8 9 10 11 12 13 14 15 16 17 18 19 20 21 22 23 24 25 26 27 28 29 30 31 32 33 34 35 36 37 38 39 40 41 42 43 44 45 46 47 48 49 50

000
ASUS43 KEAX 020210
RWREAX

WEATHER ROUNDUP FOR EASTERN KANSAS AND NORTHWEST MISSOURI
NATIONAL WEATHER SERVICE KANSAS CITY/PLEASANT HILL MO
800 PM CST SUN MAR 01 2015

KSZ040-057-103>105-MOZ028-029-037-043-020300-
...KANSAS CITY METROPOLITAN AREA...

CITY           SKY/WX    TMP DP  RH WIND       PRES   REMARKS
K.C. INTL      MOCLDY    29  20  69 CALM      30.42R
K.C. DOWNTOWN  CLEAR     29  20  69 CALM      30.44R
LEES SUMMIT    PTCLDY    27  19  72 NW3       30.43R
OLATHE - IXD   CLEAR     25  20  81 N3        30.43R
OLATHE - OJC   PTCLDY    26  19  74 CALM      30.42R
LAWRENCE       CLEAR     25  20  81 N3        30.45R

$$

MOZ001>008-011>017-020>025-030>033-038>040-044>046-053-054-020300-
...NORTHERN AND CENTRAL MISSOURI...

CITY           SKY/WX    TMP DP  RH WIND       PRES   REMARKS
ST. JOSEPH     MOCLDY    27  22  81 CALM      30.44R
MOSBY          PTCLDY    28  23  80 CALM      30.44R
WARRENSBURG    PTCLDY    27  19  74 CALM      30.44R
WHITEMAN AFB   PTCLDY    22  18  84 CALM      30.43R
CLINTON        PTCLDY    27  21  80 CALM      30.45R
SEDALIA        PTCLDY    24  18  77 W3        30.44R
WARSAW         NOT AVBL
MARSHALL       PTCLDY    30  23  74 CALM      30.43
CHILLICOTHE      N/A     27  21  78 CALM      30.44R
MOBERLY        PTCLDY    27  18  69 W3        30.42R
KIRKSVILLE     CLOUDY    25  19  78 SW5       30.41R WCI  19

$$

MOZ041-047>049-056>058-063>065-088>090-097-020300-
...EASTERN AND SOUTHERN MISSOURI...

CITY           SKY/WX    TMP DP  RH WIND       PRES   REMARKS
ST. LOUIS INTL MOCLDY    28  21  75 W7        30.42R WCI  21
SPIRIT OF STL  PTCLDY    26  19  74 W5        30.43R WCI  20
COLUMBIA       PTCLDY    26  19  74 W3        30.42R
JEFFERSON CITY PTCLDY    27  20  75 NW3       30.45R
MEXICO         FAIR      27  23  86 W6        30.41R WCI  20
HANNIBAL       MOCLDY    25  16  68 W5        30.41S WCI  19
ROLLA          CLOUDY    27  22  81 NW8       30.39R WCI  19
LEBANON        MOCLDY    28  25  86 CALM      30.40R
OSAGE BEACH    PTCLDY    27  19  74 CALM      30.42S
SPRINGFIELD    MOCLDY    29  23  78 N5        30.39R WCI  24
BRANSON        MOCLDY    32  28  86 CALM      30.39R
NEVADA         PTCLDY    25  19  80 NE3       30.45R
JOPLIN         PTCLDY    27  22  81 CALM      30.42R
WEST PLAINS    CLOUDY    32  27  81 N8        30.38R WCI  25

$$

IAZ060-094-KSZ022-034>040-054-083-096-NEZ052-066-093-020300-
...KANSAS...SOUTHEAST NEBRASKA AND IOWA...

CITY           SKY/WX    TMP DP  RH WIND       PRES   REMARKS
TOPEKA         CLEAR     27  20  75 CALM      30.45R
MANHATTAN      PTCLDY    27  20  75 CALM      30.43R
EMPORIA        PTCLDY    27  20  75 N5        30.41R WCI  22
CHANUTE        PTCLDY    23  19  85 CALM      30.43R
WICHITA        MOCLDY    29  19  66 NE6       30.42R WCI  23
OMAHA          PTCLDY    30  18  60 N3        30.40R
LINCOLN        PTCLDY    31  16  54 CALM      30.41R
FALLS CITY     CLOUDY    31  17  56 CALM      30.42R
LAMONI         MOCLDY    29  19  66 N7        30.41R WCI  22
DES MOINES     PTCLDY    28  14  55 CALM      30.40S

$$



USA.gov is the U.S. government's official web portal to all federal, state and local government web resources and services.